Location: Corralito
(14.1667°N, 87.1833°W)
Time: 00:17:17
(UTC+00:00)

Cosmos 1908 Rocket - Pass Details

Date: 07 June 2020
Orbit: 607 x 631 km, 82.5° (Epoch: 11 July)

Event Time Altitude Azimuth Distance (km) Brightness Sun altitude
Rises 01:05:43 0° 353° (N) 2,914 7.5 -11.8°
Reaches altitude 10° 01:07:57 10° 352° (N) 2,006 6.7 -12.2°
Maximum altitude 01:12:24 76° 266° (W) 651 3.8 -13.2°
Drops below altitude 10° 01:16:49 10° 181° (S) 2,000 5.9 -14.1°
Enters shadow 01:18:40 - 180° (S) 2,745 6.6 -14.5°
